星链-34544 (STARLINK-34544)

导读 | 豆包AI

STARLINK-34544是美国SpaceX公司于2025年7月19日发射的星链低轨通信卫星,隶属于全球卫星互联网星座项目。该卫星运行于近地轨道,采用平板设计,搭载Ku/Ka波段通信载荷与霍尔推进器,具备自主避撞能力,服役寿命约5-7年,退役后会再入大气层销毁,旨在为全球偏远地区提供低延迟、高速宽带互联网接入服务,推动空天地一体化网络覆盖。

Basic Information
目录编号:
64865
目录名称:
STARLINK-34544
国际标识:
2025-152Z
轨道中心:
EARTH
卫星名称:
星链-34544
卫星全名:
星链-34544 (STARLINK-34544)
卫星状态:
在轨 (已飞行238 天)
发射日期:
2025-07-19 UTC
国别 :
美国 (US)
星等 :
--
Orbit Information
数据来源 国际轨道数据 AOE轨道数据
星历时间 2026-03-14T11:53:10+0800
13小时前
查看轨道信息
2026-03-14T08:00:00+0800
16小时前
查看轨道信息
半长轴 6927.504km 6927.532km
偏心率 0.0001527 0.0001677
轨道倾角 97.601° 97.603°
近地点辐角 82.827° 88.865°
升交点赤经 289.965° 289.807°
平近点角 277.313° 114.148°
近地点 548.309km 548.233km
远地点 550.425km 550.557km
周期 95.637分钟 95.637分钟
每日圈数 15.056973 15.056881
Detailed Information
固有亮度:
5
最大亮度:
2.5
卫星平台:
Starlink V1.0
覆盖范围:
全球
运营商:
太空探索技术公司
运营商所在国:
美国
制造商(研发单位):
太空探索技术公司
制造商所在国:
美国
使用方式:
暂无
Satellite Introduction
Starlink 计划是 SpaceX 推出的全球卫星互联网项目,通过发射低轨道卫星,为全球尤其是偏远地区提供高速、低延迟的互联网服务。自 2019 年起,Starlink 已部署数千颗卫星,旨在缩小全球数字鸿沟,推动互联网普及。该项目还为军事、航空等行业提供通信支持,带来广泛经济效益。
2D Orbit Map
3D Orbit Map
Orbit Altitude Analysis Chart
Orbit Inclination Analysis Chart
Orbit Comprehensive Analysis Chart
View Comprehensive Chart